• In Netherlands
  • List of Countries
  • For 7 days
  • Water Temperature
  • Satellite Maps
  • Weather Map
  • Weather Widgets
  • user-avatar
    Login

    Hourly Weather Townsville

    Today, 21 January, Saturday

    Time Temperature Precipitation Wind Pressure Humidity
    00:00 +26°C° 0 mm 2 mps 749 mmHg 82%
    01:00 +25°C° 0 mm 2 mps 749 mmHg 83%
    02:00 +25°C° 0 mm 2 mps 749 mmHg 86%
    03:00 +25°C° 0 mm 2 mps 749 mmHg 89%
    04:00 +24°C° 0 mm 1 mps 749 mmHg 93%
    05:00 +25°C° 0 mm 1 mps 749 mmHg 89%
    06:00 +24°C° 0 mm 0 mps 749 mmHg 84%
    07:00 +25°C° 0 mm 0 mps 750 mmHg 79%
    08:00 +28°C° 0 mm 0 mps 750 mmHg 68%
    09:00 +32°C° 0 mm 1 mps 750 mmHg 57%
    10:00 +35°C° 0 mm 1 mps 750 mmHg 46%
    11:00 +36°C° 0 mm 2 mps 749 mmHg 43%
    12:00 +37°C° 0 mm 2 mps 749 mmHg 40%
    13:00 +38°C° 0 mm 3 mps 749 mmHg 37%
    14:00 +38°C° 0 mm 3 mps 748 mmHg 41%
    15:00 +37°C° 0 mm 4 mps 748 mmHg 44%
    16:00 +36°C° 0 mm 4 mps 747 mmHg 48%
    17:00 +34°C° 0 mm 3 mps 748 mmHg 57%
    18:00 +31°C° 0 mm 3 mps 748 mmHg 65%
    19:00 +29°C° 0 mm 2 mps 748 mmHg 74%
    20:00 +28°C° 0 mm 2 mps 749 mmHg 75%
    21:00 +28°C° 0 mm 3 mps 749 mmHg 77%
    22:00 +27°C° 0 mm 3 mps 750 mmHg 78%
    23:00 +27°C° 0 mm 2 mps 749 mmHg 80%

    Tomorrow, 22 January, Sunday

    Time Temperature Precipitation Wind Pressure Humidity
    00:00 +26°C° 0 mm 2 mps 749 mmHg 82%
    01:00 +26°C° 0 mm 2 mps 749 mmHg 84%
    02:00 +26°C° 0 mm 2 mps 749 mmHg 87%
    03:00 +25°C° 0 mm 2 mps 749 mmHg 90%
    04:00 +25°C° 0 mm 1 mps 749 mmHg 93%
    05:00 +26°C° 0 mm 1 mps 749 mmHg 89%
    06:00 +27°C° 0 mm 1 mps 750 mmHg 85%
    07:00 +28°C° 0 mm 1 mps 750 mmHg 81%
    08:00 +30°C° 0 mm 1 mps 750 mmHg 71%
    09:00 +32°C° 0 mm 2 mps 750 mmHg 61%
    10:00 +35°C° 0 mm 2 mps 750 mmHg 51%
    11:00 +35°C° 0 mm 2 mps 750 mmHg 49%
    12:00 +36°C° 0 mm 3 mps 750 mmHg 47%
    13:00 +37°C° 0 mm 4 mps 749 mmHg 45%
    14:00 +36°C° 0 mm 4 mps 749 mmHg 49%
    15:00 +35°C° 0 mm 4 mps 749 mmHg 53%
    16:00 +35°C° 0 mm 4 mps 748 mmHg 56%
    17:00 +33°C° 0 mm 3 mps 749 mmHg 64%
    18:00 +30°C° 0 mm 3 mps 749 mmHg 72%
    19:00 +29°C° 0 mm 3 mps 750 mmHg 80%
    20:00 +28°C° 0 mm 3 mps 751 mmHg 82%
    21:00 +28°C° 0 mm 3 mps 751 mmHg 84%
    22:00 +28°C° 0 mm 4 mps 752 mmHg 86%
    23:00 +28°C° 0 mm 4 mps 751 mmHg 87%

    Day after tomorrow, 23 January, Monday

    Time Temperature Precipitation Wind Pressure Humidity
    00:00 +28°C° 0 mm 4 mps 751 mmHg 87%
    01:00 +27°C° 0 mm 4 mps 750 mmHg 88%
    02:00 +27°C° 0 mm 4 mps 750 mmHg 89%
    03:00 +27°C° 0 mm 4 mps 750 mmHg 89%
    04:00 +27°C° 0 mm 4 mps 750 mmHg 89%
    05:00 +27°C° 0 mm 4 mps 750 mmHg 87%
    06:00 +27°C° 0 mm 4 mps 750 mmHg 85%
    07:00 +28°C° 0 mm 4 mps 751 mmHg 83%
    08:00 +29°C° 0 mm 4 mps 751 mmHg 76%
    09:00 +30°C° 0 mm 4 mps 751 mmHg 69%
    10:00 +33°C° 0 mm 4 mps 751 mmHg 63%
    11:00 +34°C° 0 mm 4 mps 751 mmHg 57%
    12:00 +35°C° 0 mm 4 mps 750 mmHg 51%
    13:00 +37°C° 0 mm 4 mps 750 mmHg 46%
    14:00 +36°C° 0 mm 4 mps 749 mmHg 47%
    15:00 +36°C° 0 mm 5 mps 749 mmHg 49%
    16:00 +35°C° 0 mm 5 mps 749 mmHg 50%
    17:00 +34°C° 0 mm 5 mps 749 mmHg 57%
    18:00 +32°C° 0 mm 5 mps 750 mmHg 64%
    19:00 +29°C° 0 mm 4 mps 750 mmHg 71%
    20:00 +29°C° 0.1 mm 5 mps 751 mmHg 76%
    21:00 +28°C° 0.1 mm 5 mps 751 mmHg 81%
    22:00 +28°C° 0.1 mm 5 mps 752 mmHg 86%
    23:00 +28°C° 1 mm 5 mps 751 mmHg 87%

    24 January, Tuesday

    Time Temperature Precipitation Wind Pressure Humidity
    00:00 +28°C° 1 mm 5 mps 751 mmHg 88%
    01:00 +27°C° 1 mm 5 mps 751 mmHg 90%
    02:00 +28°C° 2.4 mm 5 mps 750 mmHg 89%
    03:00 +28°C° 2.4 mm 5 mps 750 mmHg 89%
    04:00 +28°C° 2.4 mm 5 mps 750 mmHg 88%
    05:00 +28°C° 1.2 mm 5 mps 750 mmHg 88%
    06:00 +28°C° 1.2 mm 5 mps 751 mmHg 88%
    07:00 +28°C° 1.2 mm 4 mps 751 mmHg 88%
    08:00 +29°C° 0.4 mm 5 mps 752 mmHg 83%
    09:00 +30°C° 0.4 mm 5 mps 752 mmHg 79%
    10:00 +32°C° 0.4 mm 5 mps 752 mmHg 74%
    11:00 +32°C° 1.4 mm 6 mps 751 mmHg 74%
    12:00 +32°C° 1.4 mm 6 mps 751 mmHg 75%
    13:00 +32°C° 1.4 mm 6 mps 750 mmHg 75%
    14:00 +32°C° 0.7 mm 6 mps 750 mmHg 75%
    15:00 +32°C° 0.7 mm 7 mps 749 mmHg 75%
    16:00 +32°C° 0.7 mm 7 mps 749 mmHg 75%
    17:00 +30°C° 0.1 mm 7 mps 749 mmHg 78%
    18:00 +30°C° 0.1 mm 6 mps 750 mmHg 81%
    19:00 +29°C° 0.1 mm 6 mps 750 mmHg 85%
    20:00 +28°C° 0.1 mm 6 mps 751 mmHg 86%
    21:00 +28°C° 0.1 mm 6 mps 751 mmHg 87%
    22:00 +28°C° 0.1 mm 5 mps 752 mmHg 87%
    23:00 +28°C° 0.6 mm 5 mps 752 mmHg 89%

    25 January, Wednesday

    Time Temperature Precipitation Wind Pressure Humidity
    00:00 +27°C° 0.6 mm 5 mps 751 mmHg 91%
    01:00 +27°C° 0.6 mm 4 mps 751 mmHg 93%
    02:00 +27°C° 0.4 mm 4 mps 751 mmHg 93%
    03:00 +27°C° 0.4 mm 4 mps 751 mmHg 94%
    04:00 +27°C° 0.4 mm 4 mps 750 mmHg 95%
    05:00 +27°C° 0.1 mm 5 mps 751 mmHg 94%
    06:00 +27°C° 0.1 mm 5 mps 751 mmHg 94%
    07:00 +27°C° 0.1 mm 5 mps 752 mmHg 94%
    08:00 +28°C° 0.1 mm 5 mps 752 mmHg 87%
    09:00 +30°C° 0.1 mm 5 mps 752 mmHg 81%
    10:00 +32°C° 0.1 mm 5 mps 752 mmHg 74%
    11:00 +33°C° 0.7 mm 6 mps 751 mmHg 72%
    12:00 +33°C° 0.7 mm 6 mps 751 mmHg 70%
    13:00 +34°C° 0.7 mm 6 mps 750 mmHg 68%
    14:00 +34°C° 0.7 mm 6 mps 750 mmHg 70%
    15:00 +33°C° 0.7 mm 6 mps 750 mmHg 71%
    16:00 +33°C° 0.7 mm 6 mps 749 mmHg 73%
    17:00 +32°C° 0.7 mm 6 mps 750 mmHg 78%
    18:00 +29°C° 0.7 mm 6 mps 750 mmHg 82%
    19:00 +28°C° 0.7 mm 6 mps 750 mmHg 87%
    20:00 +28°C° 0.5 mm 6 mps 751 mmHg 88%
    21:00 +28°C° 0.5 mm 6 mps 751 mmHg 89%
    22:00 +28°C° 0.5 mm 6 mps 752 mmHg 90%
    23:00 +28°C° 0.7 mm 6 mps 751 mmHg 90%

    26 January, Thursday

    Time Temperature Precipitation Wind Pressure Humidity
    00:00 +27°C° 0.7 mm 6 mps 751 mmHg 90%
    01:00 +27°C° 0.7 mm 6 mps 751 mmHg 89%
    02:00 +27°C° 1.1 mm 6 mps 751 mmHg 89%
    03:00 +27°C° 1.1 mm 5 mps 751 mmHg 88%
    04:00 +26°C° 1.1 mm 5 mps 751 mmHg 88%
    05:00 +26°C° 0 mm 5 mps 751 mmHg 88%
    06:00 +26°C° 0 mm 6 mps 752 mmHg 88%
    07:00 +26°C° 0 mm 6 mps 752 mmHg 88%
    08:00 +28°C° 0 mm 6 mps 752 mmHg 78%
    09:00 +30°C° 0 mm 6 mps 752 mmHg 69%
    10:00 +33°C° 0 mm 6 mps 752 mmHg 59%
    11:00 +33°C° 0 mm 6 mps 751 mmHg 57%
    12:00 +34°C° 0 mm 7 mps 751 mmHg 56%
    13:00 +34°C° 0 mm 7 mps 750 mmHg 54%
    14:00 +34°C° 0 mm 7 mps 750 mmHg 55%
    15:00 +34°C° 0 mm 7 mps 749 mmHg 56%
    16:00 +34°C° 0 mm 7 mps 749 mmHg 56%
    17:00 +32°C° 0 mm 6 mps 749 mmHg 64%
    18:00 +30°C° 0 mm 6 mps 750 mmHg 71%
    19:00 +28°C° 0 mm 6 mps 750 mmHg 79%
    20:00 +28°C° 0 mm 5 mps 751 mmHg 82%
    21:00 +27°C° 0 mm 5 mps 751 mmHg 85%
    22:00 +27°C° 0 mm 5 mps 751 mmHg 89%
    23:00 +27°C° 0 mm 5 mps 751 mmHg 90%
    Show more